Change the Weather History Date:

Monday, July 15, 2013

  Actual Average Record
Temperature  
Mean Temperature 68 °F 66 °F  
Max Temperature 77 °F 80 °F 97 °F (2006)
Min Temperature 58 °F 52 °F 36 °F (1958)
Degree Days  
Heating Degree Days 0 2  
Month to date heating degree days 10 34  
Since 1 June heating degree days 203 254  
Since 1 July heating degree days 10 34  
Cooling Degree Days 3 3  
Month to date cooling degree days 35 35  
Year to date cooling degree days 46 61  
Since 1 June cooling degree days 44 60  
Growing Degree Days 16 (Base 50)    
Moisture  
Dew Point 59 °F    
Average Humidity 75    
Maximum Humidity 100    
Minimum Humidity 49    
Precipitation  
Precipitation 0.01 in 0.09 in 0.78 in (1991)
Month to date precipitation 2.23 1.19  
Year to date precipitation 10.41 11.52  
Sea Level Pressure  
Sea Level Pressure 30.16 in    
Wind  
Wind Speed 5 mph (South)    
Max Wind Speed 14 mph    
Max Gust Speed 22 mph    
Visibility 4 miles    
Events Fog    
T = Trace of Precipitation, MM = Missing Value Source: NWS Daily Summary

Daily Weather History Graph

Daily Weather History Graph

Search for Another Location

Airport or City:

Trip Planner

Search our weather history database for the weather conditions in past years. The results will help you decide how hot, cold, wet, or windy it might be!

Date:

Astronomy

Jul. 15, 2013 Rise Set
Actual Time 5:26 AM MDT 8:33 PM MDT
Civil Twilight 4:52 AM MDT 9:08 PM MDT
Nautical Twilight 4:07 AM MDT 9:52 PM MDT
Astronomical Twilight 3:13 AM MDT 10:46 PM MDT
Moon 1:05 PM MDT (7/15) No Moon Set
Length of Visible Light 16h 16m
Length of Day
15h 06m
Waxing Crescent, 46% of the Moon is Illuminated
Jul 15
Waxing Crescent
Jul 15
First Quarter
Jul 22
Full
Jul 29
Last Quarter
Aug 6
New

Hourly Weather History & Observations

Time (MDT) Temp. Dew Point Humidity Pressure Visibility Wind Dir Wind Speed Gust Speed Precip Events Conditions
12:37 AM 57.2 °F 57.2 °F 100% 30.31 in 0.5 mi Calm Calm - N/A Fog Fog
12:53 AM 57.9 °F 57.0 °F 97% 30.14 in 0.5 mi Calm Calm - N/A Fog Fog
1:17 AM 57.2 °F 57.2 °F 100% 30.31 in 0.2 mi Calm Calm - N/A Fog Fog
1:53 AM 59.0 °F 57.9 °F 96% 30.13 in 0.2 mi Calm Calm - N/A Fog Fog
2:08 AM 60.8 °F 59.0 °F 94% 30.30 in 0.5 mi Calm Calm - N/A Fog Fog
2:37 AM 60.8 °F 60.8 °F 100% 30.29 in 1.5 mi Calm Calm - N/A   Overcast
2:41 AM 60.8 °F 60.8 °F 100% 30.29 in 3.0 mi Calm Calm - N/A   Overcast
2:53 AM 60.1 °F 60.1 °F 100% 30.11 in 5.0 mi Calm Calm - N/A   Overcast
3:41 AM 60.8 °F 60.8 °F 100% 30.29 in 1.8 mi Calm Calm - N/A   Overcast
3:50 AM 60.8 °F 60.8 °F 100% 30.28 in 0.5 mi Calm Calm - N/A Fog Fog
3:53 AM 61.0 °F 60.1 °F 97% 30.09 in 0.2 mi Calm Calm - N/A Fog Fog
4:33 AM 60.8 °F 60.8 °F 100% 30.28 in 0.5 mi South 4.6 mph - N/A Fog Fog
4:42 AM 60.8 °F 60.8 °F 100% 30.27 in 0.2 mi Calm Calm - N/A Fog Fog
4:53 AM 61.0 °F 60.1 °F 97% 30.09 in 0.2 mi Calm Calm - N/A Fog Fog
5:23 AM 60.8 °F 60.8 °F 100% 30.27 in 0.5 mi Calm Calm - N/A Fog Fog
5:53 AM 60.1 °F 59.0 °F 96% 30.09 in 2.5 mi Calm Calm - N/A   Overcast
6:02 AM 60.8 °F 60.8 °F 100% 30.26 in 0.8 mi Calm Calm - N/A   Overcast
6:10 AM 60.8 °F 60.8 °F 100% 30.26 in 0.2 mi Calm Calm - N/A Fog Fog
6:47 AM 60.8 °F 60.8 °F 100% 30.26 in 1.0 mi Calm Calm - N/A   Mist
6:48 AM 60.1 °F 60.1 °F 100% 30.09 in 1.0 mi Calm Calm - N/A   Mist
7:53 AM 61.0 °F 60.1 °F 97% 30.11 in 1.2 mi South 3.5 mph - 0.01 in   Overcast
8:15 AM 60.8 °F 60.8 °F 100% 30.26 in 0.8 mi South 4.6 mph - N/A   Overcast
8:29 AM 60.8 °F 60.8 °F 100% 30.26 in 0.2 mi Variable 4.6 mph - N/A Fog Fog
8:53 AM 61.0 °F 61.0 °F 100% 30.12 in 0.2 mi SSW 4.6 mph - N/A Fog Fog
9:35 AM 60.8 °F 60.8 °F 100% 30.26 in 0.5 mi Variable 3.5 mph - N/A Fog Fog
9:46 AM 60.8 °F 60.8 °F 100% 30.26 in 1.8 mi South 3.5 mph - N/A   Overcast
9:53 AM 61.0 °F 61.0 °F 100% 30.12 in 1.0 mi South 3.5 mph - N/A   Overcast
9:58 AM 60.8 °F 60.8 °F 100% 30.26 in 0.2 mi Variable 4.6 mph - N/A Fog Fog
10:33 AM 62.6 °F 60.8 °F 94% 30.26 in 1.0 mi South 6.9 mph - N/A   Mist
10:39 AM 62.6 °F 60.8 °F 94% 30.26 in 3.0 mi South 6.9 mph - N/A   Overcast
10:53 AM 62.1 °F 61.0 °F 96% 30.11 in 5.0 mi SSW 3.5 mph - N/A   Overcast
11:29 AM 64.4 °F 60.8 °F 88% 30.26 in 10.0 mi Variable 5.8 mph - N/A   Overcast
11:53 AM 66.9 °F 60.1 °F 79% 30.09 in 10.0 mi SSE 6.9 mph - N/A   Overcast
12:05 PM 68.0 °F 60.8 °F 78% 30.25 in 10.0 mi SSW 8.1 mph - N/A   Mostly Cloudy
12:53 PM 71.1 °F 60.1 °F 68% 30.06 in 10.0 mi South 11.5 mph 16.1 mph N/A   Mostly Cloudy
1:53 PM 71.1 °F 61.0 °F 70% 30.04 in 10.0 mi SSE 8.1 mph 18.4 mph N/A   Overcast
2:10 PM 71.6 °F 60.8 °F 69% 30.22 in 10.0 mi South 9.2 mph 16.1 mph N/A   Mostly Cloudy
2:53 PM 73.9 °F 61.0 °F 64% 30.01 in 10.0 mi SSE 9.2 mph 16.1 mph N/A   Mostly Cloudy
3:53 PM 73.9 °F 62.1 °F 66% 29.99 in 10.0 mi SSE 10.4 mph 19.6 mph N/A   Mostly Cloudy
4:53 PM 73.9 °F 59.0 °F 59% 29.97 in 10.0 mi SE 10.4 mph 19.6 mph N/A   Scattered Clouds
5:53 PM 75.9 °F 57.9 °F 54% 29.96 in 10.0 mi SSE 9.2 mph 18.4 mph N/A   Clear
6:53 PM 73.9 °F 55.9 °F 53% 29.98 in 10.0 mi SE 10.4 mph - N/A   Partly Cloudy
7:53 PM 73.0 °F 54.0 °F 51% 29.98 in 10.0 mi Variable 6.9 mph - N/A   Clear
8:53 PM 69.1 °F 52.0 °F 54% 30.00 in 10.0 mi South 4.6 mph - N/A   Clear
9:53 PM 66.0 °F 48.9 °F 54% 30.03 in 10.0 mi South 4.6 mph - N/A   Clear
10:53 PM 64.9 °F 48.9 °F 56% 30.04 in 10.0 mi South 4.6 mph - N/A   Clear
11:53 PM 63.0 °F 48.9 °F 60% 30.04 in 10.0 mi Variable 4.6 mph - N/A   Clear